Powrót do katalogu

COSMOS 2251 DEB

AktywnyLEO
NORAD 35061·DEBRIS·🇷🇺 Russia

Wystrzelony Jun 16, 1993 z Plesetsk Cosmodrome

Loading…

Następne Przeloty (najbliższe 24 godziny)

TLE

ŚwieżeSource: Space-Track

Epoka: Sep 14, 2026, 01:26 UTC

1 35061U 93036AHQ 26257.06000569  .00001839  00000-0  31085-3 0  9995
2 35061  74.0433 133.1349 0040574 175.8253 184.3265 14.69615718926175

Śledź COSMOS 2251 DEB w czasie rzeczywistym z AllMySat

Download on the App Store